Home   Weather   Gronau (Westfalen)   Past weeks

Flag for Germany Past Weather in Gronau (Westfalen), North Rhine-Westphalia, Germany — Yesterday and Last 2 Weeks

41 °F


Feels Like: 41 °F
Forecast: 39 / 50 °F
Wind: 1 mph from East

Location: Twenthe

Current Time: Oct 24, 2016 at 12:09:17 AM

Latest Report: Oct 23, 2016 at 11:00 PM

Visibility: 4 mi

Pressure: 29.93 "Hg

Humidity: 96%

Dew Point: 40 °F

Location of Gronau (Westfalen)Location

Past Weather in Gronau (Westfalen) — Graph


Gronau (Westfalen) Temperature Yesterday

Maximum temperature yesterday: 50 °F (at 3:00 PM)
Minimum temperature yesterday: 29 °F (at 7:00 AM)
Average temperature yesterday: 38 °F

High & Low Weather Summary for the Past Weeks

High66 °F (Oct 16, 3:00 PM)100% (Oct 8, 11:00 PM)30.32 "Hg (Oct 8, 11:00 PM)
Low29 °F (Oct 23, 7:00 AM)54% (Oct 16, 4:00 PM)29.68 "Hg (Oct 15, 5:00 AM)
Average46 °F91%30.05 "Hg
* Reported Oct 8 10:00 PM — Oct 23 10:00 PM, Gronau (Westfalen), Weather by CustomWeather, © 2016

Note: Actual official high and low records may vary slightly from our data, if they occured in-between our weather recording intervals... More about our weather records


Gronau (Westfalen) Weather History for the Previous 24 Hours

Scroll right to see more
Time TempWeatherWind HumidityBarometerVisibility
10:00 PM
Sun, Oct 23
36 °FOvercast.1 mph99%29.94 "Hg1 mi
9:00 PM35 °FPassing clouds.2 mph100%29.93 "Hg1 mi
8:00 PM37 °FPassing clouds.2 mph100%29.93 "Hg1 mi
7:00 PM38 °FFog.1 mph99%29.94 "Hg3 mi
6:00 PM46 °FSunny.2 mph79%29.92 "Hg11 mi
5:00 PM49 °FSunny.3 mph62%29.92 "Hg17 mi
4:00 PM50 °FSunny.3 mph62%29.92 "Hg14 mi
3:00 PM50 °FSunny.3 mph73%29.93 "Hg9 mi
2:00 PM50 °FSunny.2 mph76%29.94 "Hg8 mi
1:00 PM46 °FSunny.2 mph87%29.95 "Hg6 mi
12:00 PM44 °FFog.2 mph94%29.96 "Hg4 mi
11:00 AM39 °FLow clouds.2 mph100%29.96 "Hg1 mi
10:00 AM35 °FDense fog.1 mph100%29.96 "Hg0 mi
9:00 AM31 °FIce fog.1 mph100%29.96 "Hg0 mi
8:00 AM30 °FPassing clouds.1 mph100%29.95 "Hg2 mi
7:00 AM29 °FClear.No wind99%29.95 "Hg1 mi
6:00 AM30 °FPassing clouds.1 mph100%29.95 "Hg0 mi
5:00 AM30 °FClear.No wind100%29.96 "Hg0 mi
4:00 AM31 °FPassing clouds.No wind100%29.97 "Hg0 mi
3:00 AM30 °FClear.No wind98%29.98 "Hg0 mi
2:00 AM32 °FClear.1 mph99%29.98 "Hg0 mi
1:00 AM33 °FPassing clouds.1 mph99%29.98 "Hg0 mi
12:00 AM36 °FPassing clouds.1 mph100%29.98 "Hg0 mi
Weather by CustomWeather, © 2016

See weather overviewHow to use our weather pages